Regional Weather Roundup
Issued by NWS

Home | Current Version | Previous Version | Graphics & Text | Print | Product List | Glossary On
Versions: 1 2 3 4 5 6 7 8 9 10 11 12 13 14 15 16 17 18 19 20 21 22 23 24 25 26 27 28 29 30 31 32 33 34 35 36 37 38 39 40 41 42 43 44 45 46 47 48 49 50
000
ASUS43 KDMX 291207
RWRIA

WEATHER ROUNDUP FOR IOWA
NATIONAL WEATHER SERVICE DES MOINES IA
700 AM CDT FRI AUG 29 2014

NOTE: "FAIR" INDICATES FEW OR NO CLOUDS BELOW 12,000 FEET WITH NO
SIGNIFICANT WEATHER AND/OR OBSTRUCTIONS TO VISIBILITY.

* - THESE STATIONS ARE NOT NWS STATIONS...THUS NOT UNDER NWS
QUALITY CONTROL.  THEY ALSO DO NOT REPORT WEATHER SUCH
AS PRECIPITATION OR FOG.

IAZ001>003-012>014-020>022-031>034-043>046-291300-
   NORTHWEST IOWA

CITY           SKY/WX    TMP DP  RH WIND       PRES   REMARKS
CARROLL *      PTCLDY    66  66 100 SE8       29.83R
DENISON *      PTCLDY    68  66  94 SE9       29.79S
LE MARS *      CLOUDY    70  68  94 S6        29.80R
ORANGE CITY *  MOCLDY    70  66  88 S7        29.80R
SHELDON *      MOCLDY    68  68 100 S6        29.80R
SIOUX CITY     CLOUDY    71  69  93 SE6       29.79R
6HR MIN TEMP:  70; 6HR MAX TEMP:  73;

SPENCER        MOCLDY    68  66  93 S6        29.81R
6HR MIN TEMP:  67; 6HR MAX TEMP:  73;

STORM LAKE *   CLEAR     70  70 100 S14       29.82R
$$

IAZ055>058-069>071-079>083-090>094-291300-
   SOUTHWEST IOWA

CITY           SKY/WX    TMP DP  RH WIND       PRES   REMARKS
ATLANTIC *     MOCLDY    68  66  94 CALM      29.82R
AUDUBON *      CLEAR     68  64  88 SE5       29.84S
CLARINDA *     CLEAR     70  68  94 SE5       29.85R
COUNCIL BLFS * CLOUDY    70  70 100 SE7       29.80R FOG
CRESTON *      FOG       68  68 100 SE7       29.86R VSB 0
HARLAN  *      PTCLDY    66  66 100 SE6       29.85S
RED OAK *      PTCLDY    70  68  94 CALM      29.82S FOG
SHENANDOAH *   CLEAR     68  66  94 VRB5      29.83R
$$

IAZ047>049-059>061-072>074-084-291300-
   CENTRAL IOWA

CITY           SKY/WX    TMP DP  RH WIND       PRES   REMARKS
AMES           PTCLDY    65  65 100 E3        29.86S
6HR MIN TEMP:  65; 6HR MAX TEMP:  69; 6HR PCP:  0.14;

ANKENY *       CLEAR     66  66 100 CALM      29.86R
CHARITON *     PTCLDY    70  68  94 SE8       29.87S FOG
DES MOINES     MOCLDY    69  66  90 SE8       29.85R
6HR MIN TEMP:  68; 6HR MAX TEMP:  70; 6HR PCP:  0.29;

GRINNELL*      CLEAR     66  64  94 E6        29.89R FOG
KNOXVILLE *    PTCLDY    70  68  94 SE8       29.85S FOG
MARSHALLTOWN   PTCLDY    66  65  96 NW3       29.87R
6HR MIN TEMP:  66; 6HR MAX TEMP:  68; 6HR PCP:  0.31;

PELLA *          N/A     68  67  98 SE8       29.88S FOG
PERRY *          N/A     66  66 100 E6        29.84S FOG
$$

IAZ004>006-015-016-023>025-035-036-291300-
   NORTH CENTRAL IOWA

CITY           SKY/WX    TMP DP  RH WIND       PRES   REMARKS
ALGONA *       CLEAR     68  66  94 S9        29.81S
CLARION *      CLEAR     66  66 100 SE12      29.83F
ESTHERVILLE    MOCLDY    66  65  96 S7        29.80S
6HR MIN TEMP:  66; 6HR MAX TEMP:  71;

FORT DODGE *   MOCLDY    66  64  94 SE5       29.83S
MASON CITY     MOCLDY    67  66  97 S9        29.84F
6HR MIN TEMP:  67; 6HR MAX TEMP:  70; 6HR PCP:  0.11;

FOREST CITY *  RAIN      68  68 100 SW3       29.83S
IOWA FALLS *   MOCLDY    66  65  96 SE3       29.89S
$$

IAZ007>011-017>019-026>030-037>042-050>054-066-291300-
   NORTHEAST IOWA

CITY           SKY/WX    TMP DP  RH WIND       PRES   REMARKS
CEDAR RAPIDS   PTCLDY    67  67 100 SE3       29.89S FOG
6HR MIN TEMP:  67; 6HR MAX TEMP:  69;

CHARLES CITY * FOG       68  68 100 S12       29.88S VSB 1
CLINTON *      PTCLDY    66  64  94 CALM      29.96R
DECORAH *      CLEAR     66  66 100 VRB5      29.88S FOG
DUBUQUE        FOG       67  67 100 SE8       29.93S VSB 1
6HR MIN TEMP:  66; 6HR MAX TEMP:  68;

MONTICELLO *   FOG       68  68 100 SE5       29.91S VSB 1
OELWEIN *      FOG       66  66 100 SE6       29.89S VSB 1
WATERLOO       PTCLDY    67  66  97 S6        29.86S
6HR MIN TEMP:  64; 6HR MAX TEMP:  70; 6HR PCP:  0.30;

$$

IAZ064-065-067-068-078-291300-
   EAST CENTRAL IOWA

CITY           SKY/WX    TMP DP  RH WIND       PRES   REMARKS
DAVENPORT      PTCLDY    69  66  90 NW5       29.93R
6HR MIN TEMP:  69; 6HR MAX TEMP:  71;

IOWA CITY      CLEAR     69  68  96 SE5       29.91S FOG
6HR MIN TEMP:  67; 6HR MAX TEMP:  70;

MT. PLEASANT * PTCLDY    70  69  95 CALM      29.91R FOG
MUSCATINE *    PTCLDY    68  66  94 CALM      29.91F FOG
QUAD CITIES    PTCLDY    71  67  87 S8        29.91S
6HR MIN TEMP:  70; 6HR MAX TEMP:  71;

$$

IAZ062-063-075>077-085>089-095>099-291300-
   SOUTHEAST IOWA

CITY           SKY/WX    TMP DP  RH WIND       PRES   REMARKS
BURLINGTON     PTCLDY    71  70  96 S10       29.92R
6HR MIN TEMP:  71; 6HR MAX TEMP:  72;

FAIRFIELD *    CLEAR     68  66  94 SE6       29.90S FOG
FORT MADISON * PTCLDY    72  72 100 S9        29.92S FOG
KEOKUK *       MOCLDY    72  70  94 SE5       29.91R FOG
OSKALOOSA *      N/A     68  67  98 SE6       29.89R FOG
CENTERVILLE *  PTCLDY    68  68 100 SE5       29.91R
OTTUMWA        CLEAR     68  67  96 SE6       29.88S FOG
6HR MIN TEMP:  67; 6HR MAX TEMP:  71;

WASHINGTON *   CLEAR     66  66 100 CALM      29.91S FOG
$$

ABBREVIATIONS USED IN REMARKS
   TC - TEMPERATURES IN CELSIUS
  WCI - WIND CHILL INDEX
   HX - HEAT INDEX
  VSB - VISIBILITY
$$




USA.gov is the U.S. government's official web portal to all federal, state and local government web resources and services.